Voltar ao catálogo

STARLINK-5031

AtivoComunicaçõesVLEO
NORAD 53889·PAYLOAD·🇺🇸 United States

Lançado Sep 24, 2022 de Cape Canaveral Space Force Station

Loading…

Próximas Passagens (próximas 24 horas)

TLE

AtualizadoSource: CelesTrak SupGP

Época: Sep 15, 2026, 02:06 UTC

1 53889C 22119D   26258.08798611 -.00010743  00000+0 -34549-3 0  2583
2 53889  53.1577 188.0726 0001334  85.6279 186.9308 15.31703161    17

Acompanhe STARLINK-5031 em tempo real com AllMySat

Download on the App Store